TimeCST,TemperatureF,Dew PointF,Humidity,Sea Level PressureIn,VisibilityMPH,Wind Direction,Wind SpeedMPH,Gust SpeedMPH,PrecipitationIn,Events,Conditions,WindDirDegrees,DateUTC
12:15 AM,50.9,44.6,79,30.17,10.0,North,10.4,-,N/A,,Mostly Cloudy,10,2013-01-02 06:15:00
12:35 AM,50.9,44.1,77,30.15,10.0,North,12.7,20.7,N/A,,Mostly Cloudy,10,2013-01-02 06:35:00
12:55 AM,50.7,43.7,77,30.16,10.0,North,13.8,-,N/A,,Mostly Cloudy,10,2013-01-02 06:55:00
1:15 AM,50.5,43.3,76,30.18,10.0,North,12.7,18.4,N/A,,Overcast,360,2013-01-02 07:15:00
1:35 AM,50.2,43.2,77,30.18,10.0,North,13.8,18.4,N/A,,Mostly Cloudy,10,2013-01-02 07:35:00
1:55 AM,50.0,43.0,77,30.19,10.0,North,13.8,-,N/A,,Scattered Clouds,360,2013-01-02 07:55:00
2:15 AM,49.5,43.0,78,30.20,10.0,NNE,13.8,-,N/A,Rain,Light Rain,20,2013-01-02 08:15:00
2:35 AM,49.3,42.4,77,30.20,10.0,NNE,13.8,-,N/A,,Overcast,20,2013-01-02 08:35:00
2:55 AM,49.5,42.1,76,30.20,10.0,NNE,13.8,19.6,N/A,,Overcast,20,2013-01-02 08:55:00
3:15 AM,49.5,41.7,75,30.21,10.0,North,12.7,-,N/A,,Overcast,10,2013-01-02 09:15:00
3:35 AM,49.1,41.5,75,30.20,10.0,North,16.1,-,N/A,,Scattered Clouds,10,2013-01-02 09:35:00
3:55 AM,49.1,41.0,74,30.20,10.0,North,13.8,-,N/A,,Mostly Cloudy,360,2013-01-02 09:55:00
4:15 AM,48.6,39.9,72,30.19,10.0,North,15.0,19.6,N/A,,Scattered Clouds,10,2013-01-02 10:15:00
4:35 AM,48.4,40.8,75,30.21,10.0,North,11.5,17.3,N/A,,Scattered Clouds,360,2013-01-02 10:35:00
4:55 AM,47.8,39.0,71,30.20,10.0,North,18.4,24.2,N/A,,Mostly Cloudy,10,2013-01-02 10:55:00
5:15 AM,47.5,37.2,68,30.23,10.0,North,17.3,21.9,N/A,,Mostly Cloudy,10,2013-01-02 11:15:00
5:35 AM,47.3,37.4,68,30.23,10.0,North,11.5,-,N/A,,Overcast,10,2013-01-02 11:35:00
5:55 AM,46.9,37.9,71,30.22,10.0,North,15.0,19.6,N/A,,Overcast,10,2013-01-02 11:55:00
6:15 AM,46.4,36.9,69,30.23,10.0,NNE,13.8,-,N/A,Rain,Light Rain,20,2013-01-02 12:15:00
6:35 AM,46.4,36.9,69,30.24,10.0,North,12.7,18.4,N/A,Rain,Light Rain,10,2013-01-02 12:35:00
6:55 AM,45.5,37.8,74,30.24,10.0,North,13.8,-,N/A,,Light Drizzle,10,2013-01-02 12:55:00
7:15 AM,44.8,37.0,74,30.25,10.0,North,12.7,-,N/A,Rain,Light Rain,360,2013-01-02 13:15:00
7:35 AM,44.1,37.4,77,30.25,10.0,North,12.7,-,N/A,Rain,Rain,360,2013-01-02 13:35:00
7:55 AM,43.5,37.9,81,30.26,10.0,North,9.2,-,N/A,,Drizzle,360,2013-01-02 13:55:00
8:15 AM,43.2,38.5,84,30.26,10.0,North,12.7,-,N/A,Rain,Light Rain,360,2013-01-02 14:15:00
8:35 AM,42.8,37.9,83,30.26,10.0,North,13.8,-,N/A,Rain,Light Rain,360,2013-01-02 14:35:00
8:55 AM,42.8,37.9,83,30.28,10.0,North,12.7,-,N/A,Rain,Light Rain,360,2013-01-02 14:55:00
9:15 AM,42.6,37.8,83,30.29,10.0,North,12.7,18.4,N/A,Rain,Light Rain,360,2013-01-02 15:15:00
9:35 AM,42.6,37.6,82,30.31,10.0,North,12.7,-,N/A,Rain,Light Rain,10,2013-01-02 15:35:00
9:55 AM,42.8,37.9,83,30.31,10.0,North,13.8,-,N/A,,Drizzle,360,2013-01-02 15:55:00
10:15 AM,42.8,38.1,84,30.32,10.0,North,9.2,-,N/A,Rain,Light Rain,360,2013-01-02 16:15:00
10:35 AM,43.0,39.0,86,30.31,10.0,North,11.5,-,N/A,Rain,Light Rain,360,2013-01-02 16:35:00
10:55 AM,43.0,39.2,86,30.31,10.0,North,8.1,-,N/A,Rain,Rain,360,2013-01-02 16:55:00
11:15 AM,42.8,39.0,86,30.30,10.0,North,8.1,-,N/A,Rain,Light Rain,360,2013-01-02 17:15:00
11:35 AM,42.8,39.0,86,30.29,10.0,North,10.4,-,N/A,,Light Drizzle,360,2013-01-02 17:35:00
11:55 AM,42.8,39.2,87,30.29,10.0,North,4.6,-,N/A,Rain,Light Rain,360,2013-01-02 17:55:00
12:15 PM,43.0,39.4,87,30.29,10.0,North,8.1,-,N/A,Rain,Rain,350,2013-01-02 18:15:00
12:35 PM,43.2,39.6,87,30.28,10.0,NNW,10.4,-,0.01,Rain,Rain,340,2013-01-02 18:35:00
12:55 PM,43.3,39.7,87,30.28,7.0,NNW,11.5,-,0.01,Rain,Rain,330,2013-01-02 18:55:00
1:15 PM,43.3,39.7,87,30.27,7.0,NNW,10.4,-,N/A,Rain,Light Rain,340,2013-01-02 19:15:00
1:35 PM,43.0,39.7,88,30.25,7.0,North,12.7,-,N/A,Rain,Light Rain,350,2013-01-02 19:35:00
1:55 PM,43.0,39.9,89,30.24,7.0,North,11.5,-,N/A,,Drizzle,350,2013-01-02 19:55:00
2:15 PM,43.0,39.9,89,30.23,7.0,North,11.5,-,N/A,Rain,Rain,360,2013-01-02 20:15:00
2:35 PM,42.8,39.9,90,30.23,7.0,North,10.4,-,N/A,Rain,Rain,360,2013-01-02 20:35:00
2:55 PM,43.0,40.3,90,30.22,5.0,North,10.4,-,N/A,Rain,Light Rain,360,2013-01-02 20:55:00
3:15 PM,43.2,40.6,91,30.22,5.0,North,10.4,-,N/A,Rain,Light Rain,360,2013-01-02 21:15:00
3:35 PM,43.2,40.6,91,30.23,7.0,North,11.5,-,N/A,Rain,Rain,10,2013-01-02 21:35:00
3:55 PM,43.2,40.5,90,30.22,5.0,North,12.7,-,N/A,Rain,Light Rain,10,2013-01-02 21:55:00
4:15 PM,43.0,40.3,90,30.23,7.0,North,11.5,-,N/A,Rain,Light Rain,10,2013-01-02 22:15:00
4:35 PM,43.0,40.3,90,30.23,7.0,North,11.5,-,N/A,Rain,Rain,360,2013-01-02 22:35:00
4:55 PM,43.0,40.1,90,30.24,5.0,North,12.7,-,N/A,,Drizzle,350,2013-01-02 22:55:00
5:15 PM,42.8,40.1,90,30.25,7.0,North,11.5,-,0.01,,Drizzle,360,2013-01-02 23:15:00
5:35 PM,42.8,40.1,90,30.25,5.0,North,10.4,-,0.01,Rain,Light Rain,360,2013-01-02 23:35:00
5:55 PM,43.0,40.5,91,30.25,7.0,North,8.1,-,0.01,Rain,Rain,360,2013-01-02 23:55:00
6:15 PM,43.0,40.5,91,30.26,7.0,North,9.2,-,N/A,,Drizzle,350,2013-01-03 00:15:00
6:35 PM,42.8,40.1,90,30.28,7.0,North,9.2,-,N/A,Rain,Light Rain,350,2013-01-03 00:35:00
6:55 PM,42.8,40.1,90,30.28,7.0,North,8.1,-,N/A,Rain,Light Rain,360,2013-01-03 00:55:00
7:15 PM,42.8,40.1,90,30.28,7.0,North,6.9,-,0.01,Rain,Rain,360,2013-01-03 01:15:00
7:35 PM,42.8,40.1,90,30.28,7.0,North,8.1,-,0.01,Rain,Light Rain,10,2013-01-03 01:35:00
7:55 PM,42.8,40.1,90,30.28,7.0,North,8.1,-,0.02,Rain,Light Rain,360,2013-01-03 01:55:00
8:15 PM,42.8,40.1,90,30.29,7.0,North,9.2,-,N/A,Rain,Rain,350,2013-01-03 02:15:00
8:35 PM,42.8,40.1,90,30.28,7.0,North,6.9,-,N/A,,Light Drizzle,10,2013-01-03 02:35:00
8:55 PM,43.0,40.3,90,30.28,10.0,NNE,5.8,-,N/A,,Overcast,20,2013-01-03 02:55:00
9:15 PM,43.3,40.3,89,30.29,10.0,North,8.1,-,N/A,,Overcast,10,2013-01-03 03:15:00
9:35 PM,43.7,39.9,87,30.29,10.0,NNE,8.1,-,N/A,,Overcast,20,2013-01-03 03:35:00
9:55 PM,43.7,39.9,87,30.30,10.0,North,6.9,-,N/A,,Overcast,360,2013-01-03 03:55:00
10:15 PM,43.7,40.1,87,30.30,10.0,North,8.1,-,N/A,,Overcast,350,2013-01-03 04:15:00
10:35 PM,43.5,39.9,87,30.30,10.0,North,9.2,-,N/A,,Overcast,350,2013-01-03 04:35:00
10:55 PM,43.7,39.7,86,30.30,10.0,North,9.2,-,N/A,,Overcast,350,2013-01-03 04:55:00
11:15 PM,43.7,39.7,86,30.30,10.0,North,9.2,-,N/A,,Overcast,360,2013-01-03 05:15:00
11:35 PM,43.7,39.4,85,30.29,10.0,North,6.9,-,N/A,,Overcast,360,2013-01-03 05:35:00
11:55 PM,43.7,39.4,85,30.29,10.0,North,6.9,-,N/A,,Overcast,360,2013-01-03 05:55:00